[[{"header":{"parameterUnit":"m.s-1","parameterCategory":2,"la1":30.2991,"la2":30.254,"lo1":-89.0895,"lo2":-89.0444,"dy":0.0017,"dx":0.0017,"nx":28,"ny":28,"refTime":"2025-03-18T03:00:00:Z","depth":"0","parameterNumber":2,"parameterNumberName":"U-component_of_CURRENTS"},"data":[0,0,0,0,0,0,0,0,0,0,0,0,0,0,0,0,0,0,0,0,0,0,0,0,0,0,0,0,0,0,0,0,0,0,0,0,0,0,0,0,0,0,0,0,0,0,0,0,0,0,0,0,0,0,0,0,0,0,0.1505,0.1506,0,0.1551,0.1552,0.1552,0.1559,0.1559,0.1559,0.1558,0.1583,0.1584,0.1585,0,0,0,0,0,0,0,0,0,0,0,0,0,0.1429,0.143,0.1505,0.1506,0.1506,0.1551,0.1552,0.1552,0.156,0.1559,0.1559,0.1558,0.1583,0.1584,0.1585,0,0,0,0,0,0,0,0,0,0,0,0,0,0.1467,0.1431,0.1505,0.1516,0.1517,0.1551,0.1552,0.1553,0.156,0.1559,0.1558,0.1558,0.1583,0.1584,0.1585,0.1606,0,0,0.159,0.1591,0,0,0,0,0,0,0,0,0.1465,0.147,0.1513,0.1515,0.1517,0.1549,0.1534,0.157,0.156,0.1543,0.1558,0.1558,0.1571,0.1573,0.1583,0.1607,0.1608,0.159,0.1591,0.1592,0.1592,0,0,0,0,0,0,0,0.1462,0.1468,0.1523,0.1514,0.1516,0.152,0.1525,0.1541,0.1559,0.1544,0.1545,0.1551,0.1571,0.1581,0.1583,0.1609,0.159,0.1592,0.1592,0.1593,0.1706,0.1708,0,0,0,0,0,0,0.1458,0.1465,0.1522,0.1524,0.1489,0.1522,0.1527,0.1539,0.1559,0.1562,0.1552,0.1551,0.1579,0.1582,0.1584,0.1632,0.1592,0.1593,0.1594,0.1704,0.1706,0.1709,0,0,0,0,0,0,0.1456,0.1463,0.152,0.1496,0.1503,0.1524,0.1537,0.154,0.1552,0.1565,0.1567,0.156,0.1579,0.1582,0.1614,0.1632,0.1594,0.1595,0.1701,0.1705,0.1708,0.1714,0,0,0,0,0,0,0.1454,0.1462,0.1471,0.1496,0.1505,0.155,0.1538,0.1542,0.1556,0.1556,0.1573,0.1574,0.1578,0.1612,0.1616,0.1634,0.1596,0.1699,0.1703,0.1707,0.1711,0.1717,0.1722,0,0,0,0,0,0.1451,0.1471,0.1471,0.1478,0.1516,0.1551,0.1557,0.1568,0.1557,0.1573,0.1586,0.1574,0.164,0.1615,0.1619,0.1637,0.1697,0.1702,0.1706,0.1709,0.1716,0.1722,0,0,0,0,0,0,0.1459,0.1474,0.1475,0.1502,0.1527,0.1552,0.1569,0.1571,0.1593,0.159,0.1594,0.1599,0.1634,0.1644,0.1616,0.1687,0.1669,0.1675,0.167,0.1676,0.1682,0.1688,0.1598,0,0,0,0,0,0.146,0.147,0.1494,0.1519,0.1529,0.1547,0.1561,0.1568,0.159,0.1598,0.161,0.1631,0.1659,0.1672,0.1696,0.173,0.1795,0.1751,0.1756,0.176,0.1772,0.1896,0.1913,0.1724,0.1724,0.1724,0,0,0.1469,0.1481,0.1487,0.1519,0.1537,0.1568,0.1555,0.1581,0.1606,0.1598,0.1635,0.1646,0.1673,0.1713,0.1731,0.1721,0.1854,0.1766,0.1769,0.1779,0.1902,0.1921,0.1937,0.1727,0.1727,0.1726,0,0,0.15,0.1505,0.1525,0.1547,0.1573,0.1585,0.1592,0.1618,0.1627,0.1665,0.1667,0.169,0.1733,0.1753,0.177,0.1824,0.1877,0.1835,0.1864,0.1984,0.2001,0.2016,0.2141,0.2167,0.1839,0.1839,0.1839,0,0.151,0.1543,0.154,0.1574,0.1596,0.1593,0.1631,0.1646,0.1679,0.1696,0.1683,0.1757,0.1756,0.1817,0.1827,0.1832,0.1922,0.1828,0.1991,0.2007,0.2023,0.2147,0.2176,0.184,0.1839,0.1839,0.1839,0,0.1559,0.1588,0.1607,0.164,0.1664,0.1696,0.1713,0.1732,0.1735,0.1754,0.1807,0.1818,0.1868,0.1865,0.1854,0.1957,0.1994,0.198,0.1969,0.2042,0.2169,0.2199,0.1841,0.184,0.184,0.184,0,0,0.1575,0.1628,0.1634,0.1663,0.1699,0.1726,0.1763,0.1804,0.1843,0.1858,0.1929,0.1937,0.1942,0.1963,0.1959,0.2034,0.2197,0.2052,0.2058,0.2167,0.2497,0.2476,0.2507,0.2226,0.2231,0.2235,0.2548,0,0.1616,0.1688,0.1698,0.1765,0.1805,0.1811,0.1852,0.1883,0.1913,0.198,0.1987,0.2053,0.1984,0.202,0.2081,0.2174,0.2276,0.2115,0.2418,0.2427,0.2392,0.254,0.2395,0.2659,0.2578,0.2583,0.2586,0,0.166,0.1704,0.1774,0.1835,0.1851,0.1881,0.1946,0.1985,0.2057,0.209,0.2143,0.2169,0.2259,0.2202,0.2408,0.2321,0.2416,0.2479,0.2493,0.249,0.2462,0.2571,0.2717,0.2614,0.2633,0.2629,0.2626,0,0.1682,0.1754,0.1809,0.1832,0.1898,0.1922,0.1953,0.2016,0.2064,0.2179,0.2246,0.2342,0.2432,0.2544,0.2633,0.2564,0.2888,0.2815,0.2893,0.2893,0.2837,0.2823,0.2906,0.3001,0.3001,0.3,0.2999,0,0.1724,0.1771,0.182,0.1856,0.1915,0.1951,0.2021,0.2069,0.2164,0.2257,0.2306,0.2424,0.2529,0.2691,0.2747,0.2931,0.2998,0.2948,0.2989,0.2836,0.2819,0.2776,0.2744,0.3011,0.3009,0.3007,0.3005,0,0.175,0.1783,0.1849,0.1913,0.1929,0.1973,0.2045,0.21,0.2196,0.2335,0.2386,0.2557,0.2773,0.2872,0.3107,0.3104,0.3176,0.3305,0.3116,0.3126,0.3036,0.301,0.3073,0.2979,0.3452,0.3453,0.3455,0,0.1766,0.1805,0.1877,0.1905,0.193,0.1989,0.2025,0.2108,0.2182,0.2416,0.2498,0.2744,0.2891,0.3209,0.3284,0.3438,0.3292,0.3392,0.3199,0.306,0.3064,0.2894,0.2795,0.3151,0.3149,0.3148,0.3148,0,0.1797,0.1821,0.1873,0.1923,0.1958,0.2007,0.2077,0.2135,0.2269,0.2396,0.2608,0.2752,0.305,0.3156,0.3353,0.3404,0.3195,0.3374,0.3292,0.2903,0.2668,0.2585,0.292,0.3138,0.3139,0.314,0.314,0.3141,0.1804,0.1842,0.1892,0.1939,0.1972,0.2012,0.2035,0.2131,0.2242,0.2422,0.2615,0.2778,0.2982,0.3221,0.3258,0.3206,0.3186,0.3094,0.3106,0.297,0.2763,0.3079,0.3283,0.3285,0.3286,0.3287,0.3288,0,0.1815,0.1857,0.19,0.194,0.1951,0.1981,0.2052,0.2066,0.2167,0.2366,0.2524,0.2704,0.2825,0.2936,0.3001,0.2931,0.2741,0.2865,0.2575,0.2515,0.2872,0.2734,0.2751,0.2751,0.2751,0.2751,0.2751,0.2751,0.1819,0.1871,0.1897,0.1904,0.1919,0.1908,0.1932,0.197,0.2065,0.2202,0.23,0.2444,0.2659,0.2822,0.2764,0.269,0.2464,0.2389,0.2392,0.2616,0.2634,0.2652,0.251,0.2479,0.2479,0.1844,0.184,0.1837]},{"header":{"parameterUnit":"m.s-1","parameterCategory":2,"la1":30.2991,"la2":30.254,"lo1":-89.0895,"lo2":-89.0444,"dy":0.0017,"dx":0.0017,"nx":28,"ny":28,"refTime":"2025-03-18T03:00:00:Z","depth":"0","parameterNumber":3,"parameterNumberName":"V-component_of_CURRENTS"},"data":[0,0,0,0,0,0,0,0,0,0,0,0,0,0,0,0,0,0,0,0,0,0,0,0,0,0,0,0,0,0,0,0,0,0,0,0,0,0,0,0,0,0,0,0,0,0,0,0,0,0,0,0,0,0,0,0,0,0,0.0127,0.0127,0,0.0122,0.0122,0.0122,0.0131,0.0131,0.0132,0.0132,0.0114,0.0113,0.0112,0,0,0,0,0,0,0,0,0,0,0,0,0,0.0155,0.0154,0.0127,0.0128,0.0128,0.0122,0.0122,0.0122,0.0131,0.0131,0.0132,0.0132,0.0114,0.0113,0.0112,0,0,0,0,0,0,0,0,0,0,0,0,0,0.0144,0.0154,0.0127,0.0133,0.0133,0.0123,0.0122,0.0122,0.0131,0.0131,0.0132,0.0133,0.0115,0.0113,0.0112,0.0089,0,0,0.0108,0.0107,0,0,0,0,0,0,0,0,0.0145,0.0143,0.0132,0.0132,0.0133,0.013,0.0125,0.0111,0.013,0.013,0.0132,0.0133,0.0119,0.0117,0.0112,0.0088,0.0087,0.0107,0.0107,0.0106,0.0106,0,0,0,0,0,0,0,0.0145,0.0143,0.0123,0.0132,0.0133,0.0139,0.0138,0.0123,0.0118,0.013,0.0131,0.0133,0.0119,0.0113,0.0112,0.0087,0.0107,0.0106,0.0105,0.0105,0.0059,0.0059,0,0,0,0,0,0,0.0148,0.0144,0.0124,0.0124,0.0143,0.0138,0.0137,0.0128,0.0119,0.0119,0.0133,0.0134,0.0115,0.0113,0.0111,0.0083,0.0106,0.0105,0.0104,0.0059,0.0059,0.0059,0,0,0,0,0,0,0.0149,0.0146,0.0124,0.0136,0.0134,0.0137,0.0128,0.0128,0.0126,0.0122,0.0121,0.013,0.0116,0.0113,0.0098,0.0082,0.0104,0.0103,0.006,0.0059,0.0059,0.0027,0,0,0,0,0,0,0.0149,0.0146,0.0142,0.0136,0.0133,0.012,0.0127,0.0128,0.0127,0.0128,0.0119,0.0118,0.0116,0.01,0.0096,0.0081,0.0102,0.006,0.006,0.0059,0.0029,0.0026,0.0023,0,0,0,0,0,0.015,0.0144,0.0141,0.0139,0.0127,0.012,0.0119,0.0123,0.0126,0.0123,0.0116,0.0119,0.0093,0.0098,0.0094,0.0078,0.0061,0.006,0.0059,0.003,0.0026,0.0023,0,0,0,0,0,0,0.0155,0.0144,0.0141,0.0132,0.0127,0.0122,0.0123,0.0121,0.0112,0.0114,0.0109,0.0107,0.0088,0.0089,0.0094,0.0065,0.0079,0.0077,0.0058,0.0054,0.0052,0.0063,0.0101,0,0,0,0,0,0.0153,0.0143,0.0136,0.0128,0.0127,0.0123,0.0121,0.012,0.0113,0.0111,0.0104,0.0096,0.008,0.0073,0.0063,0.0042,0.0073,0.0032,0.0029,0.0027,0.0035,0.007,0.0072,0.0056,0.0056,0.0056,0,0,0.0152,0.0146,0.0139,0.0129,0.0126,0.0121,0.0123,0.0119,0.0108,0.0109,0.0092,0.0084,0.0073,0.0052,0.0044,0.0051,0.0047,0.0026,0.0024,0.0033,0.007,0.0071,0.0073,0.0055,0.0055,0.0055,0,0,0.0153,0.0139,0.0137,0.0132,0.0128,0.012,0.0118,0.011,0.0101,0.0085,0.0079,0.0062,0.0046,0.003,0.002,-0.0005,0.0031,-0.0006,-0.0014,0.002,0.0022,0.0024,0.0065,0.0071,-0.0007,-0.0007,-0.0007,0,0.0157,0.0146,0.0136,0.0136,0.013,0.0119,0.0115,0.01,0.0086,0.0084,0.008,0.0062,0.0034,0.0016,-0.0006,-0.0013,0.0025,-0.0003,0.0017,0.002,0.0023,0.0065,0.0072,-0.0009,-0.0009,-0.0009,-0.0009,0,0.016,0.0149,0.0148,0.0138,0.0128,0.012,0.0101,0.0091,0.008,0.0075,0.0062,0.0034,0.0037,0.0007,-0.0017,-0.0019,0.0008,0.001,0.0027,0.0022,0.0067,0.0075,-0.0011,-0.0011,-0.001,-0.001,0,0,0.0175,0.0154,0.0155,0.0152,0.0126,0.0125,0.0098,0.0084,0.0106,0.0069,0.01,0.002,0.0033,0.0022,-0.0002,-0.0004,0.0016,0.0004,0.0007,0.0048,0.0112,0.0108,0.0117,0.0033,0.0034,0.0035,0.0136,0,0.0183,0.018,0.0161,0.0154,0.0149,0.0126,0.0116,0.0103,0.0105,0.0136,0.0094,0.012,0.0032,0.0058,0.0028,0.0047,0.0037,-0.001,0.0108,0.0112,0.0111,0.0125,0.0094,0.0179,0.0144,0.0145,0.0146,0,0.0197,0.019,0.0181,0.0173,0.0173,0.0169,0.0179,0.0172,0.0191,0.0211,0.0215,0.0219,0.0202,0.0148,0.0145,0.013,0.0106,0.0099,0.0104,0.0119,0.0123,0.0178,0.0196,0.0027,0.0159,0.0158,0.0157,0,0.0221,0.0209,0.02,0.0193,0.0181,0.0182,0.0183,0.0198,0.0241,0.0287,0.0368,0.0332,0.039,0.033,0.0279,0.0237,0.0305,0.0258,0.0223,0.0224,0.0229,0.0228,0.01,0.0245,0.0245,0.0245,0.0244,0,0.0232,0.0234,0.0219,0.0217,0.0249,0.022,0.0278,0.0293,0.0361,0.0474,0.0426,0.0542,0.0445,0.0464,0.0358,0.0336,0.0372,0.0234,0.0251,0.0216,0.0213,0.0093,0.0009,0.0249,0.0248,0.0247,0.0246,0,0.0261,0.0242,0.025,0.0245,0.0261,0.0287,0.0361,0.043,0.0481,0.0643,0.0681,0.0745,0.0784,0.0666,0.0627,0.0495,0.0355,0.0404,0.0369,0.0378,0.0158,0.0076,0.0033,-0.0026,0.0391,0.0392,0.0392,0,0.0275,0.0275,0.0293,0.0338,0.0343,0.039,0.0454,0.0494,0.0602,0.0793,0.0907,0.0985,0.1076,0.0992,0.0774,0.0608,0.0425,0.045,0.0328,0.0148,0.007,0.0011,-0.004,0.033,0.033,0.033,0.033,0,0.0314,0.0317,0.0335,0.0425,0.0492,0.0576,0.0677,0.0785,0.0892,0.1044,0.1279,0.1361,0.1281,0.1126,0.0861,0.0711,0.0326,0.0443,0.0271,0.002,-0.0061,-0.0109,0.0264,0.0329,0.0329,0.0329,0.0329,0.0329,0.0364,0.0403,0.0448,0.0541,0.0632,0.0786,0.0895,0.104,0.1237,0.15,0.1544,0.169,0.1387,0.1038,0.0809,0.033,0.0355,0.0155,0.008,0.0044,-0.0059,0.0311,0.0378,0.0378,0.0379,0.0379,0.0379,0,0.0434,0.0495,0.0583,0.0707,0.084,0.0864,0.1076,0.1218,0.1486,0.1679,0.1857,0.1759,0.1367,0.0936,0.0315,0.0006,-0.0127,-0.0176,-0.0301,-0.033,0.0012,-0.0044,-0.0081,-0.0081,-0.0081,-0.0081,-0.0081,-0.0081,0.0485,0.0588,0.064,0.0879,0.0982,0.1182,0.1319,0.1538,0.1705,0.1957,0.2017,0.2033,0.1688,0.0529,-0.0214,-0.0377,-0.0605,-0.064,-0.0722,-0.0555,-0.0532,-0.051,-0.0586,-0.0737,-0.0737,-0.1054,-0.1058,-0.106]}],[{"header":{"parameterUnit":"m.s-1","parameterCategory":2,"la1":30.2991,"la2":30.254,"lo1":-89.0895,"lo2":-89.0444,"dy":0.0017,"dx":0.0017,"nx":28,"ny":28,"refTime":"2025-03-18T03:00:00:Z","depth":"2","parameterNumber":2,"parameterNumberName":"U-component_of_CURRENTS"},"data":[0,0,0,0,0,0,0,0,0,0,0,0,0,0,0,0,0,0,0,0,0,0,0,0,0,0,0,0,0,0,0,0,0,0,0,0,0,0,0,0,0,0,0,0,0,0,0,0,0,0,0,0,0,0,0,0,0,0,0.1492,0.1493,0,0.1532,0.1532,0.1532,0.1542,0.1542,0.1542,0.1541,0.1573,0.1574,0.1575,0,0,0,0,0,0,0,0,0,0,0,0,0,0.1424,0.1425,0.1492,0.1493,0.1493,0.1531,0.1532,0.1532,0.1542,0.1542,0.1542,0.1541,0.1572,0.1574,0.1575,0,0,0,0,0,0,0,0,0,0,0,0,0,0.1457,0.1425,0.1492,0.1503,0.1505,0.1531,0.1532,0.1533,0.1542,0.1542,0.1541,0.1541,0.1572,0.1573,0.1575,0.159,0,0,0.158,0.158,0,0,0,0,0,0,0,0,0.1455,0.1459,0.1501,0.1503,0.1504,0.1532,0.1519,0.1552,0.1542,0.1527,0.1541,0.1541,0.1559,0.1562,0.1569,0.1592,0.1593,0.158,0.1581,0.1581,0.1582,0,0,0,0,0,0,0,0.1452,0.1457,0.1507,0.1502,0.1504,0.1506,0.151,0.1525,0.1544,0.1528,0.1529,0.1535,0.156,0.1567,0.157,0.1593,0.158,0.1581,0.1582,0.1583,0.1696,0.1698,0,0,0,0,0,0,0.145,0.1455,0.1506,0.1508,0.1479,0.1507,0.1512,0.1523,0.1544,0.1547,0.1535,0.1535,0.1565,0.1568,0.1571,0.1623,0.1581,0.1583,0.1584,0.1694,0.1696,0.1698,0,0,0,0,0,0,0.1448,0.1454,0.1504,0.1483,0.1489,0.1509,0.1521,0.1524,0.1534,0.1549,0.1552,0.1542,0.1565,0.1569,0.1601,0.1623,0.1583,0.1585,0.1691,0.1694,0.1697,0.1706,0,0,0,0,0,0,0.1446,0.1453,0.1461,0.1483,0.1491,0.153,0.1521,0.1525,0.1538,0.1538,0.1556,0.1559,0.1565,0.1598,0.1602,0.1624,0.1586,0.1688,0.1693,0.1696,0.1703,0.1709,0.1714,0,0,0,0,0,0.1443,0.146,0.1461,0.1467,0.1501,0.1531,0.1535,0.1547,0.1539,0.1552,0.1567,0.1558,0.1626,0.1601,0.1605,0.1628,0.1687,0.1691,0.1696,0.1701,0.1708,0.1714,0,0,0,0,0,0,0.145,0.1463,0.1465,0.1489,0.151,0.1533,0.1547,0.1549,0.157,0.1569,0.1576,0.1581,0.1619,0.163,0.1601,0.1678,0.1659,0.1664,0.1661,0.1668,0.1673,0.1679,0.1587,0,0,0,0,0,0.1451,0.1459,0.148,0.1502,0.1511,0.1526,0.1538,0.1546,0.1567,0.1575,0.1589,0.1613,0.1643,0.1658,0.1683,0.1718,0.1779,0.1742,0.1747,0.1752,0.1763,0.1883,0.1901,0.1714,0.1714,0.1714,0,0,0.1458,0.1469,0.1474,0.1502,0.1517,0.1548,0.1534,0.1557,0.1585,0.1576,0.1617,0.1628,0.1657,0.17,0.1719,0.1709,0.1842,0.1758,0.1761,0.177,0.189,0.1909,0.1925,0.1717,0.1716,0.1716,0,0,0.1488,0.1489,0.1508,0.1528,0.1552,0.1563,0.157,0.1593,0.1605,0.1644,0.1648,0.1672,0.1718,0.1741,0.1759,0.1814,0.1865,0.1827,0.1858,0.1975,0.1991,0.2006,0.2121,0.2146,0.1832,0.1832,0.1832,0,0.1496,0.1529,0.1522,0.1555,0.1577,0.1572,0.161,0.1625,0.1658,0.1676,0.1664,0.174,0.1741,0.1806,0.1818,0.1823,0.1908,0.1821,0.1982,0.1998,0.2013,0.2127,0.2155,0.1833,0.1833,0.1833,0.1833,0,0.1544,0.1573,0.159,0.1625,0.1647,0.1677,0.1696,0.1715,0.172,0.1739,0.1794,0.1805,0.1857,0.1855,0.1846,0.195,0.1983,0.1971,0.1959,0.2032,0.2148,0.2177,0.1834,0.1834,0.1834,0.1833,0,0,0.1556,0.161,0.1617,0.1648,0.1684,0.1709,0.175,0.1792,0.1832,0.1848,0.192,0.1931,0.1934,0.1957,0.1954,0.2028,0.2184,0.2044,0.205,0.2149,0.2471,0.2339,0.2358,0.2215,0.2219,0.2223,0.2513,0,0.1598,0.1673,0.1683,0.1753,0.1795,0.18,0.1843,0.1876,0.1906,0.1973,0.1981,0.2047,0.1979,0.2015,0.2074,0.2164,0.226,0.2108,0.2393,0.2402,0.2268,0.2386,0.2124,0.2347,0.2542,0.2546,0.255,0,0.1641,0.1689,0.1764,0.1827,0.1842,0.1874,0.194,0.1981,0.2052,0.2085,0.2138,0.2163,0.2252,0.2195,0.2392,0.231,0.2396,0.2455,0.2468,0.236,0.2323,0.2305,0.2392,0.2598,0.2594,0.2591,0.2587,0,0.1665,0.1741,0.18,0.1824,0.1893,0.1917,0.1949,0.2011,0.2059,0.2174,0.2241,0.2334,0.2423,0.2527,0.2601,0.2542,0.2838,0.278,0.275,0.2744,0.258,0.2548,0.2955,0.2955,0.2954,0.2953,0.2952,0,0.1708,0.1758,0.1812,0.1851,0.1911,0.1947,0.2017,0.2065,0.2158,0.2252,0.2302,0.2419,0.2519,0.2664,0.2709,0.2819,0.2941,0.279,0.2817,0.2574,0.2541,0.2789,0.2766,0.2964,0.2962,0.296,0.2958,0,0.1734,0.1772,0.1842,0.191,0.1926,0.1969,0.204,0.2095,0.2191,0.2331,0.2383,0.2552,0.273,0.2805,0.3018,0.2969,0.3078,0.3091,0.2786,0.2767,0.2887,0.2861,0.3108,0.3105,0.3104,0.3102,0.3101,0,0.1751,0.1794,0.1872,0.1899,0.1926,0.1984,0.202,0.2102,0.2176,0.2412,0.2494,0.2706,0.2826,0.3046,0.3007,0.3077,0.3133,0.2879,0.2674,0.2905,0.2908,0.2885,0.2862,0.2498,0.2492,0.2487,0.2483,0,0.1783,0.181,0.1866,0.1919,0.1953,0.2001,0.207,0.2128,0.2264,0.2382,0.259,0.2712,0.288,0.2824,0.2868,0.2852,0.282,0.2776,0.318,0.245,0.2339,0.2338,0.2335,0.2439,0.2443,0.2446,0.2449,0.245,0.1789,0.183,0.1886,0.1933,0.1965,0.2006,0.203,0.212,0.222,0.2352,0.2537,0.2596,0.2639,0.2533,0.2507,0.2439,0.2603,0.2474,0.2487,0.2506,0.2334,0.222,0.2269,0.2272,0.2275,0.2277,0.2279,0,0.1795,0.1846,0.1891,0.1933,0.1945,0.1976,0.2049,0.2061,0.2146,0.2222,0.232,0.2111,0.2099,0.2148,0.1976,0.1973,0.1922,0.1897,0.1822,0.1867,0.1906,0.17,0.147,0.1468,0.1466,0.1464,0,0,0.1798,0.1854,0.1884,0.1896,0.1914,0.1906,0.1931,0.1957,0.1981,0.1908,0.1843,0.1956,0.2054,0.1717,0.1687,0.1574,0.1701,0.1496,0.2141,0.2095,0.2132,0.2231,0.1962,0,0,0,0,0]},{"header":{"parameterUnit":"m.s-1","parameterCategory":2,"la1":30.2991,"la2":30.254,"lo1":-89.0895,"lo2":-89.0444,"dy":0.0017,"dx":0.0017,"nx":28,"ny":28,"refTime":"2025-03-18T03:00:00:Z","depth":"2","parameterNumber":3,"parameterNumberName":"V-component_of_CURRENTS"},"data":[0,0,0,0,0,0,0,0,0,0,0,0,0,0,0,0,0,0,0,0,0,0,0,0,0,0,0,0,0,0,0,0,0,0,0,0,0,0,0,0,0,0,0,0,0,0,0,0,0,0,0,0,0,0,0,0,0,0,0.0002,0.0002,0,-0.0011,-0.0012,-0.0012,-0.0,0.0001,0.0001,0.0002,-0.0007,-0.0008,-0.0009,0,0,0,0,0,0,0,0,0,0,0,0,0,0.0038,0.0037,0.0002,0.0002,0.0002,-0.0011,-0.0012,-0.0012,-0.0,0.0001,0.0001,0.0002,-0.0007,-0.0008,-0.0009,0,0,0,0,0,0,0,0,0,0,0,0,0,0.0021,0.0037,0.0002,0.0008,0.0009,-0.0011,-0.0012,-0.0012,-0.0,0.0001,0.0002,0.0003,-0.0007,-0.0008,-0.0009,-0.0039,0,0,-0.0013,-0.0014,0,0,0,0,0,0,0,0,0.0022,0.0019,0.0007,0.0008,0.0008,-0.0001,-0.0002,-0.002,-0.0001,0.0001,0.0002,0.0003,-0.0004,-0.0005,-0.0014,-0.0039,-0.0039,-0.0013,-0.0014,-0.0015,-0.0015,0,0,0,0,0,0,0,0.0023,0.002,-0.0006,0.0007,0.0008,0.0012,0.001,-0.0006,-0.0009,0.0001,0.0002,0.0004,-0.0004,-0.0012,-0.0014,-0.004,-0.0013,-0.0015,-0.0015,-0.0016,-0.0054,-0.0055,0,0,0,0,0,0,0.0028,0.0021,-0.0005,-0.0006,0.0021,0.0011,0.0009,-0.0001,-0.0009,-0.0009,0.0003,0.0005,-0.0011,-0.0012,-0.0014,-0.0034,-0.0015,-0.0016,-0.0017,-0.0054,-0.0054,-0.0055,0,0,0,0,0,0,0.0029,0.0025,-0.0005,0.001,0.0007,0.0009,-0.0002,-0.0002,-0.0004,-0.0007,-0.0006,0.0002,-0.001,-0.0012,-0.0024,-0.0034,-0.0017,-0.0018,-0.0054,-0.0054,-0.0055,-0.0083,0,0,0,0,0,0,0.003,0.0025,0.0022,0.001,0.0006,-0.001,-0.0003,-0.0003,-0.0003,-0.0001,-0.0008,-0.0008,-0.0009,-0.0022,-0.0025,-0.0036,-0.0019,-0.0054,-0.0054,-0.0054,-0.0081,-0.0084,-0.0086,0,0,0,0,0,0.0031,0.0024,0.0022,0.0019,0.0001,-0.001,-0.0012,-0.0008,-0.0004,-0.0007,-0.0012,-0.0007,-0.0026,-0.0024,-0.0028,-0.0038,-0.0053,-0.0054,-0.0054,-0.008,-0.0083,-0.0086,0,0,0,0,0,0,0.0037,0.0024,0.0022,0.0011,0.0004,-0.0007,-0.0007,-0.0009,-0.0017,-0.0013,-0.0018,-0.0019,-0.0032,-0.0031,-0.0028,-0.0048,-0.0037,-0.0038,-0.0055,-0.0058,-0.006,-0.0048,-0.002,0,0,0,0,0,0.0036,0.0027,0.0016,0.0007,0.0005,-0.0003,-0.0006,-0.0006,-0.0014,-0.0016,-0.0021,-0.0026,-0.004,-0.0044,-0.0052,-0.007,-0.0046,-0.0076,-0.0078,-0.008,-0.0071,-0.0042,-0.0041,-0.0056,-0.0056,-0.0056,0,0,0.0034,0.0028,0.0021,0.0008,0.0003,-0.0002,-0.0002,-0.0007,-0.0016,-0.0017,-0.0029,-0.0037,-0.0046,-0.0062,-0.0067,-0.0062,-0.0065,-0.0081,-0.0082,-0.0072,-0.0043,-0.0041,-0.004,-0.0057,-0.0056,-0.0056,0,0,0.0034,0.0021,0.002,0.0014,0.001,0.0,-0.0,-0.0011,-0.0017,-0.0032,-0.0037,-0.005,-0.0064,-0.0078,-0.0086,-0.0106,-0.0078,-0.0105,-0.0109,-0.0082,-0.008,-0.0079,-0.0053,-0.0048,-0.0106,-0.0106,-0.0106,0,0.0039,0.0029,0.0018,0.0019,0.0014,0.0002,-0.0001,-0.0016,-0.003,-0.003,-0.0032,-0.0048,-0.0073,-0.0088,-0.0105,-0.0113,-0.0084,-0.0102,-0.0085,-0.0082,-0.008,-0.0054,-0.0048,-0.0108,-0.0107,-0.0107,-0.0107,0,0.0042,0.0034,0.0032,0.0025,0.0016,0.001,-0.0008,-0.0016,-0.0025,-0.003,-0.0038,-0.0066,-0.0063,-0.0089,-0.0113,-0.0114,-0.0095,-0.0091,-0.0077,-0.008,-0.0052,-0.0046,-0.011,-0.0109,-0.0109,-0.0108,0,0,0.0055,0.0038,0.004,0.0041,0.0018,0.0017,-0.0005,-0.0016,0.0008,-0.0027,0.0004,-0.0069,-0.0059,-0.0068,-0.0092,-0.0097,-0.0087,-0.0093,-0.0091,-0.0066,-0.0015,-0.0125,-0.0129,-0.007,-0.0069,-0.0069,-0.0005,0,0.0064,0.0066,0.005,0.0048,0.0046,0.0025,0.0019,0.0009,0.0013,0.0043,0.0002,0.0028,-0.0056,-0.0032,-0.0063,-0.0053,-0.007,-0.0104,-0.0016,-0.0013,-0.0111,-0.0126,-0.0118,-0.0071,0.0002,0.0003,0.0003,0,0.0079,0.0077,0.0075,0.0073,0.0074,0.0072,0.0088,0.0083,0.0103,0.0123,0.0126,0.0128,0.0107,0.0055,0.0035,0.0027,-0.0007,-0.0022,-0.0019,-0.0106,-0.0114,-0.0055,-0.0062,0.0014,0.0013,0.0012,0.0011,0,0.0105,0.0099,0.0098,0.0094,0.0087,0.0092,0.0094,0.0111,0.0154,0.0199,0.0277,0.0236,0.0288,0.0217,0.0144,0.0117,0.0142,0.0113,-0.0027,-0.0033,-0.0003,-0.001,0.0089,0.0089,0.0089,0.0089,0.0088,0,0.0118,0.0126,0.0118,0.012,0.0157,0.0132,0.0192,0.0208,0.0273,0.0382,0.0335,0.0442,0.0338,0.0332,0.0214,0.0112,0.0199,-0.003,-0.003,-0.0017,-0.0026,0.0068,0.0064,0.0091,0.009,0.009,0.0089,0,0.0148,0.0135,0.015,0.0153,0.0171,0.02,0.0274,0.034,0.0391,0.0547,0.0583,0.0636,0.0608,0.0461,0.0391,0.024,0.0132,0.0068,0.0073,0.0068,-0.0077,-0.0082,-0.0071,-0.0074,-0.0077,-0.0079,-0.0082,0,0.0163,0.0168,0.0196,0.0242,0.0251,0.0301,0.0363,0.0404,0.0507,0.0688,0.0796,0.081,0.0826,0.0632,0.0369,0.0121,0.01,-0.0026,-0.0127,-0.0096,-0.0095,-0.0096,-0.0097,-0.0074,-0.0076,-0.0077,-0.0078,0,0.0203,0.0211,0.0234,0.0328,0.0396,0.048,0.0578,0.0679,0.0783,0.0899,0.1098,0.1117,0.092,0.0668,0.0277,0.011,-0.0006,-0.0072,0.0024,-0.0077,-0.0106,-0.0104,-0.0102,-0.0092,-0.009,-0.0089,-0.0089,-0.0088,0.0249,0.0293,0.0344,0.0439,0.0531,0.0678,0.078,0.0901,0.1055,0.1232,0.1258,0.1241,0.0968,0.0409,0.0161,-0.0119,-0.0133,-0.0235,-0.0225,-0.0215,-0.027,-0.0307,-0.0339,-0.0339,-0.0339,-0.0339,-0.0339,0,0.0305,0.038,0.0471,0.0596,0.0724,0.0754,0.0951,0.1051,0.1248,0.1301,0.1375,0.1042,0.0735,0.0428,-0.0003,-0.0269,-0.0245,-0.0344,-0.0242,-0.023,-0.0219,-0.027,-0.034,-0.034,-0.034,-0.034,0,0,0.0351,0.0452,0.0509,0.0748,0.0856,0.104,0.1166,0.1285,0.1347,0.1351,0.1271,0.1131,0.0769,0.0442,0.0107,-0.0095,-0.0095,-0.0143,-0.0126,0.0045,0.006,-0.0155,-0.0222,0,0,0,0,0]}],[{"header":{"parameterUnit":"m.s-1","parameterCategory":2,"la1":30.2991,"la2":30.254,"lo1":-89.0895,"lo2":-89.0444,"dy":0.0017,"dx":0.0017,"nx":28,"ny":28,"refTime":"2025-03-18T03:00:00:Z","depth":"4","parameterNumber":2,"parameterNumberName":"U-component_of_CURRENTS"},"data":[0,0,0,0,0,0,0,0,0,0,0,0,0,0,0,0,0,0,0,0,0,0,0,0,0,0,0,0,0,0,0,0,0,0,0,0,0,0,0,0,0,0,0,0,0,0,0,0,0,0,0,0,0,0,0,0,0,0,0.0602,0.0602,0,0.0588,0.0588,0.0588,0.0561,0.056,0.056,0.0559,0.0565,0.0565,0.0566,0,0,0,0,0,0,0,0,0,0,0,0,0,0.0571,0.0572,0.0602,0.0602,0.0602,0.0588,0.0588,0.0588,0.0561,0.056,0.056,0.0559,0.0565,0.0565,0.0566,0,0,0,0,0,0,0,0,0,0,0,0,0,0.0572,0.0572,0.0602,0.0588,0.0586,0.0588,0.0588,0.0588,0.0561,0.056,0.056,0.0559,0.0564,0.0565,0.0566,0.0583,0,0,0.0568,0.0569,0,0,0,0,0,0,0,0,0.0572,0.0573,0.059,0.0589,0.0587,0.0577,0.0579,0.0587,0.0561,0.0569,0.0559,0.0559,0.0572,0.0572,0.0568,0.0583,0.0583,0.0568,0.0569,0.0569,0.0569,0,0,0,0,0,0,0,0.0572,0.0574,0.0595,0.059,0.0588,0.0571,0.0571,0.058,0.0573,0.0568,0.0566,0.0568,0.0571,0.0568,0.0568,0.0583,0.0568,0.0569,0.0569,0.057,0.0623,0.0624,0,0,0,0,0,0,0.058,0.0574,0.0595,0.0595,0.058,0.0572,0.0572,0.058,0.0573,0.0571,0.0568,0.0566,0.0567,0.0568,0.0569,0.0619,0.0569,0.057,0.057,0.0622,0.0623,0.0624,0,0,0,0,0,0,0.0579,0.0582,0.0596,0.0585,0.0585,0.0574,0.0582,0.058,0.0599,0.0573,0.0571,0.0593,0.0566,0.0568,0.0588,0.0618,0.057,0.0571,0.0621,0.0623,0.0624,0.0701,0,0,0,0,0,0,0.0579,0.0582,0.06,0.0586,0.0586,0.0622,0.0583,0.058,0.06,0.0598,0.0594,0.0592,0.0566,0.0587,0.0589,0.0618,0.0572,0.062,0.0622,0.0623,0.0697,0.0705,0.0712,0,0,0,0,0,0.0578,0.0607,0.0601,0.0604,0.0609,0.0624,0.0624,0.0611,0.0602,0.0624,0.0609,0.0593,0.0599,0.0589,0.0591,0.0621,0.0619,0.0621,0.0623,0.0694,0.0704,0.0712,0,0,0,0,0,0,0.0601,0.0606,0.06,0.0629,0.0637,0.062,0.0641,0.0633,0.0639,0.0644,0.0611,0.0609,0.0636,0.062,0.061,0.0639,0.0605,0.0608,0.0659,0.0667,0.0674,0.0722,0.0572,0,0,0,0,0,0.0616,0.0645,0.0639,0.0668,0.0674,0.0664,0.0672,0.067,0.0667,0.0669,0.0664,0.0654,0.0644,0.065,0.0644,0.0671,0.0715,0.0689,0.0696,0.0702,0.0741,0.0834,0.0855,0.0631,0.0631,0.0631,0,0,0.0629,0.0642,0.0655,0.0676,0.0679,0.0667,0.0669,0.0699,0.0693,0.0671,0.0683,0.0688,0.0656,0.0674,0.0686,0.0668,0.0787,0.0705,0.0711,0.0747,0.0839,0.0861,0.0881,0.0633,0.0633,0.0632,0,0,0.0644,0.0688,0.0692,0.0699,0.0717,0.0714,0.073,0.0737,0.0753,0.0769,0.0742,0.0777,0.0762,0.0755,0.074,0.079,0.0822,0.0783,0.0863,0.0952,0.0972,0.0991,0.1074,0.11,0.0787,0.0787,0.0787,0,0.0656,0.0655,0.0699,0.0689,0.0695,0.0731,0.072,0.0737,0.0752,0.0806,0.0783,0.0831,0.0797,0.0834,0.0834,0.081,0.0874,0.083,0.0966,0.0985,0.1003,0.1084,0.1111,0.0791,0.0791,0.079,0.079,0,0.0648,0.0643,0.0657,0.0649,0.0672,0.0691,0.0708,0.0759,0.0794,0.0835,0.0928,0.0911,0.0957,0.0934,0.089,0.0996,0.1005,0.0967,0.0953,0.1031,0.111,0.1137,0.0797,0.0795,0.0794,0.0793,0,0,0.068,0.0649,0.0654,0.0641,0.066,0.0687,0.0713,0.0783,0.0866,0.0915,0.1021,0.1014,0.1096,0.1086,0.1067,0.1129,0.1276,0.1111,0.1114,0.1211,0.1503,0.1259,0.1265,0.1279,0.1284,0.1288,0.1508,0,0.0654,0.0604,0.062,0.0606,0.058,0.065,0.0698,0.0788,0.0878,0.1002,0.1073,0.1161,0.1123,0.1173,0.1237,0.1279,0.1353,0.1222,0.1399,0.1405,0.1193,0.1289,0.1304,0.1528,0.1534,0.1539,0.1542,0,0.0625,0.0601,0.0555,0.0595,0.0611,0.0646,0.0797,0.0843,0.1029,0.1115,0.1256,0.1327,0.1451,0.1379,0.1564,0.1498,0.152,0.1537,0.1545,0.1317,0.1211,0.1432,0.1591,0.1587,0.1584,0.158,0.1577,0,0.0584,0.0571,0.0544,0.0544,0.059,0.0665,0.0745,0.0917,0.1014,0.1219,0.1335,0.1506,0.1607,0.1694,0.1706,0.1687,0.1874,0.1845,0.1654,0.1639,0.1761,0.1738,0.1972,0.1972,0.1971,0.1971,0.197,0,0.0523,0.0507,0.055,0.0524,0.0617,0.0683,0.0838,0.0944,0.1137,0.1271,0.1424,0.1508,0.1698,0.1796,0.18,0.1801,0.1963,0.1708,0.1687,0.1783,0.1761,0.178,0.1755,0.1979,0.1977,0.1975,0.1974,0,0.0431,0.0435,0.0419,0.0506,0.0569,0.0649,0.0857,0.0976,0.1171,0.1333,0.1406,0.1605,0.1729,0.184,0.1969,0.1903,0.1914,0.1845,0.1953,0.1928,0.1623,0.16,0.1766,0.176,0.1754,0.1749,0.1745,0,0.0376,0.0327,0.0399,0.0447,0.0497,0.0641,0.0756,0.0961,0.1072,0.1322,0.1381,0.1578,0.1671,0.1731,0.1796,0.1856,0.1778,0.182,0.1728,0.1644,0.1608,0.1593,0.1577,0.1737,0.1735,0.1734,0.1732,0,0.0252,0.0269,0.0266,0.0357,0.0474,0.0585,0.0758,0.0816,0.1044,0.1243,0.1354,0.1422,0.1539,0.1615,0.1658,0.1653,0.1833,0.1762,0.1774,0.1689,0.161,0.1576,0.1567,0.1713,0.1716,0.1717,0.1719,0,0.0187,0.0171,0.0182,0.028,0.0405,0.0495,0.0587,0.0738,0.0875,0.1164,0.1154,0.1326,0.1501,0.1499,0.1494,0.152,0.1516,0.1486,0.1513,0.1536,0.1338,0.1195,0.1191,0,0,0,0,0,0.0128,0.0083,0.0127,0.0204,0.0324,0.0418,0.0585,0.0681,0.0882,0.0942,0.107,0.1144,0.1213,0.1259,0.1245,0.1337,0.1479,0.1305,0.1448,0.1605,0.1628,0.1403,0,0,0,0,0,0,0.0081,0.0056,0.0071,0.0141,0.0201,0.0331,0.0425,0.0552,0.0606,0.0813,0.0862,0.1052,0.1131,0.1229,0.1221,0.1239,0.1295,0.1417,0.1413,0.1593,0.1613,0.1631,0.1408,0,0,0,0,0]},{"header":{"parameterUnit":"m.s-1","parameterCategory":2,"la1":30.2991,"la2":30.254,"lo1":-89.0895,"lo2":-89.0444,"dy":0.0017,"dx":0.0017,"nx":28,"ny":28,"refTime":"2025-03-18T03:00:00:Z","depth":"4","parameterNumber":3,"parameterNumberName":"V-component_of_CURRENTS"},"data":[0,0,0,0,0,0,0,0,0,0,0,0,0,0,0,0,0,0,0,0,0,0,0,0,0,0,0,0,0,0,0,0,0,0,0,0,0,0,0,0,0,0,0,0,0,0,0,0,0,0,0,0,0,0,0,0,0,0,-0.0323,-0.0324,0,-0.0357,-0.0357,-0.0358,-0.0402,-0.0403,-0.0403,-0.0404,-0.0479,-0.0481,-0.0482,0,0,0,0,0,0,0,0,0,0,0,0,0,-0.0315,-0.0315,-0.0323,-0.0324,-0.0324,-0.0357,-0.0357,-0.0358,-0.0402,-0.0403,-0.0404,-0.0405,-0.0479,-0.048,-0.0482,0,0,0,0,0,0,0,0,0,0,0,0,0,-0.0331,-0.0315,-0.0323,-0.035,-0.0353,-0.0357,-0.0357,-0.0358,-0.0402,-0.0403,-0.0404,-0.0405,-0.0478,-0.048,-0.0482,-0.0472,0,0,-0.0488,-0.0489,0,0,0,0,0,0,0,0,-0.033,-0.0331,-0.0346,-0.0348,-0.0352,-0.0377,-0.0382,-0.0398,-0.0401,-0.0383,-0.0404,-0.0405,-0.0448,-0.0453,-0.0455,-0.0475,-0.0478,-0.0488,-0.049,-0.049,-0.0491,0,0,0,0,0,0,0,-0.0328,-0.033,-0.0336,-0.0346,-0.035,-0.0367,-0.037,-0.0385,-0.0409,-0.0385,-0.0388,-0.0392,-0.045,-0.0453,-0.0458,-0.0479,-0.0488,-0.049,-0.0491,-0.0492,-0.0476,-0.0475,0,0,0,0,0,0,-0.0323,-0.0328,-0.0335,-0.0337,-0.0344,-0.0366,-0.037,-0.0367,-0.0408,-0.0415,-0.0391,-0.0394,-0.045,-0.0455,-0.0461,-0.0423,-0.049,-0.0492,-0.0493,-0.0478,-0.0476,-0.0474,0,0,0,0,0,0,-0.0322,-0.0323,-0.0334,-0.0335,-0.0337,-0.0365,-0.0362,-0.0367,-0.0378,-0.0413,-0.0421,-0.0397,-0.0451,-0.0458,-0.0464,-0.0427,-0.0493,-0.0495,-0.048,-0.0477,-0.0475,-0.0365,0,0,0,0,0,0,-0.0322,-0.0322,-0.0321,-0.0334,-0.0337,-0.0331,-0.0361,-0.0367,-0.0379,-0.0383,-0.0421,-0.0428,-0.0452,-0.0461,-0.0466,-0.0431,-0.0496,-0.0482,-0.0479,-0.0476,-0.037,-0.0359,-0.0349,0,0,0,0,0,-0.0321,-0.0313,-0.0321,-0.0322,-0.0334,-0.033,-0.0333,-0.0357,-0.0378,-0.0373,-0.0394,-0.0428,-0.0446,-0.0461,-0.0468,-0.0432,-0.0483,-0.048,-0.0476,-0.0375,-0.0361,-0.0349,0,0,0,0,0,0,-0.0314,-0.0317,-0.0326,-0.0321,-0.0323,-0.0338,-0.0338,-0.0355,-0.0367,-0.0376,-0.0412,-0.0419,-0.0412,-0.0438,-0.0454,-0.0419,-0.0468,-0.0466,-0.0389,-0.0376,-0.0366,-0.0377,-0.0498,0,0,0,0,0,-0.0309,-0.0301,-0.0308,-0.0303,-0.0302,-0.032,-0.0324,-0.0338,-0.035,-0.0358,-0.038,-0.0398,-0.0399,-0.0402,-0.0416,-0.0398,-0.0459,-0.0378,-0.0367,-0.0358,-0.037,-0.0449,-0.0447,-0.0463,-0.0463,-0.0463,0,0,-0.0306,-0.0306,-0.0303,-0.0301,-0.0306,-0.0275,-0.0325,-0.0325,-0.0292,-0.0363,-0.0333,-0.0369,-0.0389,-0.0365,-0.0363,-0.0383,-0.0376,-0.0353,-0.0345,-0.0363,-0.0445,-0.0444,-0.0443,-0.046,-0.0461,-0.0461,0,0,-0.0284,-0.0292,-0.0273,-0.026,-0.0261,-0.0257,-0.0255,-0.0264,-0.0262,-0.0249,-0.0278,-0.0287,-0.0303,-0.0293,-0.0294,-0.0233,-0.0324,-0.0243,-0.019,-0.0264,-0.0265,-0.0266,-0.0304,-0.031,-0.0229,-0.0229,-0.0229,0,-0.0282,-0.0241,-0.0268,-0.0235,-0.0201,-0.024,-0.0187,-0.0186,-0.0195,-0.0194,-0.0229,-0.026,-0.026,-0.0232,-0.0198,-0.0206,-0.0276,-0.0233,-0.0253,-0.0255,-0.0259,-0.0298,-0.0306,-0.0223,-0.0224,-0.0224,-0.0225,0,-0.0236,-0.0192,-0.0175,-0.0129,-0.0108,-0.0068,-0.0058,-0.0048,-0.0063,-0.0083,-0.0095,-0.0124,-0.016,-0.0135,-0.0143,-0.0146,-0.0195,-0.0238,-0.0289,-0.0251,-0.0294,-0.0304,-0.0215,-0.0217,-0.0219,-0.022,0,0,-0.0237,-0.0154,-0.0144,-0.0083,-0.0034,-0.0009,0.0051,0.0086,0.008,0.0052,0.003,0.0056,-0.0036,-0.0042,-0.007,-0.0102,-0.0138,-0.0176,-0.0183,-0.0219,-0.0308,-0.0254,-0.026,-0.0216,-0.0218,-0.0219,-0.0315,0,-0.0176,-0.007,-0.0047,0.0072,0.0146,0.0155,0.0201,0.021,0.0178,0.0133,0.0084,0.0032,0.0021,-0.003,-0.0061,-0.0134,-0.0169,-0.0108,-0.0336,-0.0342,-0.0304,-0.0271,-0.0225,-0.0323,-0.0326,-0.0328,-0.0329,0,-0.013,-0.0043,0.0086,0.02,0.0223,0.0261,0.0311,0.0333,0.0266,0.0219,0.0134,0.0043,0.0008,-0.0046,-0.0154,-0.0136,-0.0216,-0.0268,-0.0275,-0.028,-0.0307,-0.038,-0.0349,-0.0347,-0.0346,-0.0344,-0.0343,0,-0.0089,0.0046,0.0166,0.0213,0.0318,0.0351,0.0367,0.0338,0.0329,0.0219,0.0156,0.0061,-0.0009,-0.0128,-0.021,-0.022,-0.0357,-0.0387,-0.0407,-0.0404,-0.0477,-0.0476,-0.0494,-0.0494,-0.0493,-0.0493,-0.0493,0,-0.0012,0.0077,0.0181,0.0256,0.0331,0.0373,0.0378,0.0366,0.0301,0.0264,0.0156,0.0091,-0.0048,-0.0138,-0.0233,-0.0331,-0.0382,-0.0397,-0.043,-0.042,-0.0411,-0.0482,-0.048,-0.0497,-0.0496,-0.0495,-0.0494,0,0.0008,0.0087,0.0218,0.0341,0.0353,0.0382,0.0372,0.0354,0.0303,0.0242,0.0202,0.0098,-0.0006,-0.0116,-0.0282,-0.0335,-0.0448,-0.0478,-0.0425,-0.0455,-0.0444,-0.0434,-0.0523,-0.0522,-0.0522,-0.0521,-0.052,0,0.0025,0.0109,0.0248,0.0266,0.0309,0.0335,0.0329,0.0325,0.0311,0.0255,0.0231,0.0125,0.0051,-0.0125,-0.025,-0.0416,-0.0436,-0.0493,-0.0486,-0.0426,-0.045,-0.0442,-0.0433,-0.0519,-0.0519,-0.0519,-0.0518,0,0.0073,0.0114,0.0211,0.0255,0.0269,0.0302,0.0307,0.0312,0.0316,0.0286,0.0246,0.0145,0.0041,-0.0102,-0.0213,-0.0342,-0.0455,-0.0485,-0.0488,-0.0483,-0.0422,-0.0445,-0.0437,-0.0515,-0.0516,-0.0516,-0.0516,0,0.006,0.011,0.0201,0.0234,0.0241,0.0264,0.0281,0.0298,0.0304,0.0298,0.0282,0.0158,0.0094,-0.0065,-0.0182,-0.0279,-0.0315,-0.0354,-0.0365,-0.037,-0.0286,-0.0184,-0.0231,0,0,0,0,0,0.0056,0.0109,0.0152,0.0219,0.0226,0.0234,0.0267,0.0294,0.0334,0.0322,0.0315,0.0222,0.0061,-0.003,-0.0118,-0.0187,-0.0346,-0.0295,-0.0399,-0.0499,-0.0503,-0.0424,0,0,0,0,0,0,0.0043,0.0099,0.0162,0.019,0.0211,0.0238,0.0256,0.0294,0.0301,0.0318,0.0233,0.0206,0.0042,0.012,-0.0117,-0.0151,-0.0228,-0.0369,-0.0371,-0.0497,-0.05,-0.0503,-0.0423,0,0,0,0,0]}]]